Location: Unspecified
(48.5539°N, 71.6350°W)
Time: 23:50:27
(UTC-04:00)

ISS - Pass Details

Date: 30 May 2019
Orbit: 407 x 418 km, 51.6° (Epoch: 20 June)

Event Time Altitude Azimuth Distance (km) Brightness Sun altitude
Rises 22:41:56 0° 290° (WNW) 2,358 0.9 -14.5°
Reaches altitude 10° 22:44:07 10° 282° (WNW) 1,495 -0.4 -14.6°
Maximum altitude 22:47:14 36° 214° (SSW) 674 -3.0 -14.9°
Enters shadow 22:48:04 31° 179° (S) 764 -2.9 -15.0°
